TimeCDT,TemperatureF,Dew PointF,Humidity,Sea Level PressureIn,VisibilityMPH,Wind Direction,Wind SpeedMPH,Gust SpeedMPH,PrecipitationIn,Events,Conditions,WindDirDegrees,DateUTC
12:53 AM,73.0,70.0,90,30.08,10.0,East,8.1,-,N/A,,Overcast,100,2013-07-16 05:53:00
1:53 AM,72.0,69.1,91,30.07,10.0,East,4.6,-,0.00,,Overcast,80,2013-07-16 06:53:00
2:53 AM,72.0,69.1,91,30.07,10.0,ENE,3.5,-,N/A,,Overcast,60,2013-07-16 07:53:00
3:43 AM,72.0,68.0,87,30.09,10.0,East,6.9,-,N/A,,Overcast,80,2013-07-16 08:43:00
3:53 AM,72.0,68.0,87,30.07,10.0,East,4.6,-,N/A,,Overcast,80,2013-07-16 08:53:00
4:07 AM,72.0,68.0,87,30.08,10.0,East,4.6,-,N/A,,Overcast,80,2013-07-16 09:07:00
4:53 AM,72.0,69.1,91,30.06,10.0,East,5.8,-,N/A,,Overcast,80,2013-07-16 09:53:00
5:15 AM,72.0,69.1,91,30.09,10.0,East,5.8,-,0.00,Rain,Light Rain,90,2013-07-16 10:15:00
5:32 AM,73.0,69.1,87,30.09,9.0,ESE,5.8,-,0.01,Rain,Light Rain,110,2013-07-16 10:32:00
5:53 AM,72.0,70.0,93,30.07,10.0,East,6.9,-,0.01,,Overcast,90,2013-07-16 10:53:00
6:24 AM,72.0,69.1,91,30.11,10.0,ESE,4.6,-,0.00,Rain,Light Rain,120,2013-07-16 11:24:00
6:53 AM,72.0,70.0,93,30.10,10.0,SE,3.5,-,0.00,Rain,Light Rain,130,2013-07-16 11:53:00
7:06 AM,73.0,70.0,90,30.13,10.0,Calm,Calm,-,0.00,Rain,Light Rain,0,2013-07-16 12:06:00
7:28 AM,73.0,70.0,90,30.13,10.0,East,5.8,-,0.00,,Overcast,90,2013-07-16 12:28:00
7:53 AM,73.0,70.0,90,30.11,10.0,East,5.8,-,0.00,,Overcast,100,2013-07-16 12:53:00
8:03 AM,73.0,70.0,90,30.13,10.0,East,6.9,-,N/A,,Overcast,90,2013-07-16 13:03:00
8:53 AM,73.9,70.0,87,30.13,10.0,ESE,5.8,-,N/A,,Overcast,120,2013-07-16 13:53:00
9:20 AM,75.9,71.1,85,30.15,10.0,East,6.9,-,N/A,,Mostly Cloudy,100,2013-07-16 14:20:00
9:53 AM,77.0,71.1,82,30.13,10.0,ESE,8.1,-,N/A,,Mostly Cloudy,110,2013-07-16 14:53:00
10:53 AM,79.0,71.1,77,30.14,10.0,ESE,11.5,-,N/A,,Overcast,110,2013-07-16 15:53:00
11:53 AM,80.1,71.1,74,30.14,10.0,East,10.4,-,N/A,,Mostly Cloudy,100,2013-07-16 16:53:00
12:53 PM,82.9,70.0,65,30.14,10.0,East,11.5,-,N/A,,Mostly Cloudy,90,2013-07-16 17:53:00
1:53 PM,84.0,69.1,61,30.12,10.0,ESE,13.8,19.6,N/A,,Mostly Cloudy,110,2013-07-16 18:53:00
2:53 PM,84.9,69.1,59,30.10,10.0,East,6.9,17.3,N/A,,Mostly Cloudy,80,2013-07-16 19:53:00
3:53 PM,87.1,66.9,51,30.08,10.0,SE,6.9,-,N/A,,Mostly Cloudy,140,2013-07-16 20:53:00
4:53 PM,87.1,66.9,51,30.07,10.0,ESE,9.2,-,N/A,,Mostly Cloudy,120,2013-07-16 21:53:00
5:53 PM,89.1,66.9,48,30.07,10.0,ESE,11.5,-,N/A,,Mostly Cloudy,110,2013-07-16 22:53:00
5:58 PM,84.9,69.1,59,30.09,8.0,ESE,29.9,38.0,N/A,Thunderstorm,Thunderstorm,120,2013-07-16 22:58:00
6:02 PM,75.9,70.0,82,30.12,1.8,ESE,28.8,42.6,0.00,Rain-Thunderstorm,Light Thunderstorms and Rain,110,2013-07-16 23:02:00
6:05 PM,75.0,69.1,82,30.12,0.8,SSE,17.3,42.6,0.09,Rain-Thunderstorm,Heavy Thunderstorms and Rain,150,2013-07-16 23:05:00
6:10 PM,73.9,70.0,87,30.11,0.5,SE,9.2,38.0,0.35,Fog-Rain-Thunderstorm,Heavy Thunderstorms and Rain,130,2013-07-16 23:10:00
6:14 PM,75.0,70.0,84,30.12,5.0,SE,9.2,-,0.37,Thunderstorm,Overcast,130,2013-07-16 23:14:00
6:53 PM,77.0,72.0,84,30.11,9.0,ESE,12.7,23.0,0.45,Rain-Thunderstorm,Light Thunderstorms and Rain,120,2013-07-16 23:53:00
7:07 PM,77.0,72.0,84,30.13,9.0,SE,4.6,-,0.01,Rain,Light Rain,140,2013-07-17 00:07:00
7:53 PM,75.9,73.0,91,30.11,9.0,East,3.5,-,0.03,Rain,Light Rain,100,2013-07-17 00:53:00
8:53 PM,75.9,73.0,91,30.11,10.0,NE,4.6,-,0.01,Rain,Light Rain,50,2013-07-17 01:53:00
9:53 PM,75.9,73.0,91,30.13,10.0,NNE,4.6,-,0.00,,Mostly Cloudy,20,2013-07-17 02:53:00
10:53 PM,77.0,73.0,88,30.14,10.0,NNW,6.9,-,N/A,,Overcast,340,2013-07-17 03:53:00
11:39 PM,75.9,73.0,91,30.19,9.0,ESE,19.6,29.9,N/A,Thunderstorm,Thunderstorm,120,2013-07-17 04:39:00
11:48 PM,71.6,69.8,94,30.21,3.0,East,23.0,33.4,0.09,Rain-Thunderstorm,Thunderstorms and Rain,100,2013-07-17 04:48:00
11:53 PM,71.1,68.0,90,30.19,5.0,East,12.7,32.2,0.11,Rain-Thunderstorm,Thunderstorms and Rain,100,2013-07-17 04:53:00